Location: Lussas
(44.6119°N, 4.4726°E)
Time: 17:26:03
(UTC+00:00)

X-37B - Visible Passes

Search period start: 15 June 2021 00:00
Search period end: 25 June 2021 00:00
Orbit: 386 x 389 km, 45.0° (Epoch: 10 June)

Date Brightness Start Highest point End Pass type
(mag) Time Alt. Az. Time Alt. Az. Time Alt. Az.
15 Jun 0.5 02:04:20 29° WSW 02:05:46 77° SSE 02:08:57 10° E visible
16 Jun 1.4 01:08:13 41° ESE 01:08:13 41° ESE 01:10:34 10° E visible
16 Jun 0.6 02:40:52 10° W 02:44:03 80° N 02:47:14 10° E visible
17 Jun 0.5 01:44:24 33° W 01:45:40 86° N 01:48:51 10° E visible
18 Jun 1.6 00:48:20 39° E 00:48:20 39° E 00:50:29 10° E visible
18 Jun 0.6 02:20:47 10° W 02:23:58 85° N 02:27:09 10° E visible
19 Jun 0.6 01:24:37 41° W 01:25:36 80° N 01:28:46 10° E visible
19 Jun 0.6 02:59:05 10° W 03:02:13 59° SSW 03:05:21 10° ESE visible
20 Jun 2.2 00:28:47 27° E 00:28:47 27° E 00:30:23 10° E visible
20 Jun 0.4 02:01:04 13° W 02:03:52 81° SSW 02:07:03 10° ESE visible
21 Jun 0.5 01:05:32 84° NNE 01:05:32 84° NNE 01:08:42 10° E visible
21 Jun 1.0 02:39:02 10° W 02:42:02 39° SSW 02:45:01 10° SE visible
22 Jun 0.5 01:43:03 45° WSW 01:43:45 59° SSW 01:46:52 10° ESE visible
22 Jun 2.3 03:18:00 10° WSW 03:19:58 15° SW 03:21:55 10° S visible
22 Jun 1.5 21:29:15 10° SW 21:31:22 30° SSW 21:31:22 30° SSW visible
23 Jun 1.7 02:22:08 24° SSW 02:22:08 24° SSW 02:24:28 10° SSE visible
23 Jun 1.7 20:31:22 10° SSW 20:34:00 24° SSE 20:36:37 10° E visible
23 Jun 0.5 22:07:11 10° WSW 22:10:09 72° SW 22:10:09 72° SW visible
24 Jun 0.6 21:08:54 10° WSW 21:12:02 57° SSE 21:15:10 10° E visible
24 Jun 1.8 22:45:28 10° W 22:47:29 36° W 22:47:29 36° W visible
